Location: Unspecified
(0.0000°N, 0.0000°E)
Time: 22:47:37
(UTC+02:00)

Ariane H10-3 - Visible Passes

Search period start: 26 June 2016 00:00
Search period end: 06 July 2016 00:00
Orbit: 289 x 20549 km, 7.2° (Epoch: 25 June)

Date Brightness Start Highest point End Pass type
(mag) Time Alt. Az. Time Alt. Az. Time Alt. Az.
26 Jun 8.2 02:58:56 74° SE 02:58:56 74° SE 07:21:00 10° E visible
27 Jun 8.2 03:03:34 76° SE 03:03:34 76° SE 07:27:02 10° E visible
27 Jun 3.5 20:24:10 10° NW 20:26:00 27° NNE 20:28:54 10° ENE visible
28 Jun 8.2 03:08:10 77° SE 03:08:10 77° SE 07:32:56 10° E visible
28 Jun 3.4 20:28:44 10° NW 20:30:37 29° NNE 20:33:46 10° ENE visible
29 Jun 8.2 03:12:45 77° SSE 03:12:45 77° SSE 07:38:44 10° E visible
29 Jun 3.3 20:33:15 10° NW 20:35:11 32° NNE 20:38:39 10° E visible
30 Jun 8.2 03:17:18 78° SSE 03:17:18 78° SSE 07:44:25 10° E visible
30 Jun 3.2 20:37:45 10° WNW 20:39:44 35° NNE 20:43:31 10° E visible
01 Jul 8.2 03:21:49 78° S 03:21:49 78° S 07:50:01 10° E visible
01 Jul 3.1 20:42:13 10° WNW 20:44:15 38° NNE 20:48:22 10° E visible
02 Jul 8.2 03:26:19 78° S 03:26:28 78° S 07:55:31 10° E visible
02 Jul 3.1 20:46:39 10° WNW 20:48:45 42° NNE 20:53:01 11° E visible
03 Jul 8.2 03:30:47 78° S 03:32:22 78° S 08:00:55 10° E visible
03 Jul 3.0 20:51:04 10° WNW 20:53:13 46° NNE 20:57:16 12° E visible
04 Jul 8.2 03:35:13 78° SSW 03:38:21 78° S 08:06:15 10° E visible
04 Jul 3.0 20:55:26 10° WNW 20:57:38 50° NNE 21:01:29 14° E visible
05 Jul 8.2 03:39:37 77° SSW 03:44:24 78° S 08:11:29 10° E visible
05 Jul 2.9 20:59:47 10° WNW 21:02:02 55° NNE 21:05:42 16° E visible
